• In Netherlands
  • List of Countries
  • For 7 days
  • Water Temperature
  • Satellite Maps
  • Weather Map
  • Weather Widgets
  • user-avatar
    Login

    Hourly Weather Baraki Barak

    Today, 27 May, Saturday

    Time Temperature Precipitation Wind Pressure Humidity
    00:00 +20°C° 0 mm 2 mps 599 mmHg 26%
    01:00 +20°C° 0 mm 2 mps 598 mmHg 28%
    02:00 +19°C° 0 mm 2 mps 598 mmHg 30%
    03:00 +18°C° 0 mm 2 mps 598 mmHg 31%
    04:00 +18°C° 0 mm 2 mps 598 mmHg 32%
    05:00 +17°C° 0 mm 2 mps 598 mmHg 34%
    06:00 +18°C° 0 mm 2 mps 598 mmHg 30%
    07:00 +20°C° 0 mm 3 mps 599 mmHg 25%
    08:00 +21°C° 0 mm 3 mps 600 mmHg 21%
    09:00 +24°C° 0 mm 3 mps 600 mmHg 18%
    10:00 +25°C° 0 mm 3 mps 600 mmHg 15%
    11:00 +27°C° 0 mm 4 mps 601 mmHg 12%
    12:00 +28°C° 0 mm 4 mps 601 mmHg 11%
    13:00 +29°C° 0 mm 4 mps 601 mmHg 10%
    14:00 +30°C° 0 mm 4 mps 601 mmHg 9%
    15:00 +30°C° 0 mm 4 mps 601 mmHg 9%
    16:00 +30°C° 0 mm 4 mps 600 mmHg 9%
    17:00 +30°C° 0 mm 4 mps 600 mmHg 9%
    18:00 +28°C° 0 mm 4 mps 600 mmHg 11%
    19:00 +27°C° 0 mm 3 mps 599 mmHg 12%
    20:00 +25°C° 0 mm 2 mps 598 mmHg 14%
    21:00 +24°C° 0 mm 2 mps 598 mmHg 16%
    22:00 +23°C° 0 mm 2 mps 598 mmHg 17%
    23:00 +21°C° 0 mm 2 mps 598 mmHg 18%

    Tomorrow, 28 May, Sunday

    Time Temperature Precipitation Wind Pressure Humidity
    00:00 +21°C° 0 mm 2 mps 598 mmHg 19%
    01:00 +20°C° 0 mm 2 mps 597 mmHg 21%
    02:00 +19°C° 0 mm 2 mps 597 mmHg 22%
    03:00 +19°C° 0 mm 2 mps 597 mmHg 23%
    04:00 +18°C° 0 mm 2 mps 597 mmHg 24%
    05:00 +17°C° 0 mm 2 mps 596 mmHg 25%
    06:00 +19°C° 0 mm 2 mps 597 mmHg 22%
    07:00 +21°C° 0 mm 2 mps 598 mmHg 20%
    08:00 +23°C° 0 mm 2 mps 599 mmHg 18%
    09:00 +25°C° 0 mm 3 mps 599 mmHg 15%
    10:00 +26°C° 0 mm 3 mps 600 mmHg 13%
    11:00 +28°C° 0 mm 4 mps 600 mmHg 10%
    12:00 +28°C° 0 mm 4 mps 600 mmHg 10%
    13:00 +29°C° 0 mm 5 mps 600 mmHg 9%
    14:00 +30°C° 0 mm 5 mps 600 mmHg 8%
    15:00 +30°C° 0 mm 6 mps 600 mmHg 9%
    16:00 +30°C° 0 mm 7 mps 600 mmHg 9%
    17:00 +29°C° 0 mm 8 mps 599 mmHg 9%
    18:00 +28°C° 0 mm 7 mps 599 mmHg 11%
    19:00 +26°C° 0 mm 6 mps 599 mmHg 13%
    20:00 +24°C° 0 mm 6 mps 599 mmHg 15%
    21:00 +23°C° 0 mm 5 mps 599 mmHg 18%
    22:00 +21°C° 0 mm 4 mps 599 mmHg 20%
    23:00 +20°C° 0 mm 3 mps 599 mmHg 22%

    Day after tomorrow, 29 May, Monday

    Time Temperature Precipitation Wind Pressure Humidity
    00:00 +20°C° 0 mm 2 mps 598 mmHg 24%
    01:00 +19°C° 0 mm 2 mps 598 mmHg 26%
    02:00 +18°C° 0 mm 2 mps 597 mmHg 27%
    03:00 +18°C° 0 mm 2 mps 597 mmHg 29%
    04:00 +17°C° 0 mm 2 mps 597 mmHg 31%
    05:00 +16°C° 0 mm 2 mps 596 mmHg 32%
    06:00 +18°C° 0 mm 3 mps 597 mmHg 28%
    07:00 +19°C° 0 mm 3 mps 598 mmHg 25%
    08:00 +21°C° 0 mm 3 mps 599 mmHg 21%
    09:00 +23°C° 0 mm 4 mps 599 mmHg 18%
    10:00 +25°C° 0 mm 4 mps 600 mmHg 15%
    11:00 +27°C° 0 mm 4 mps 601 mmHg 12%
    12:00 +28°C° 0 mm 4 mps 601 mmHg 11%
    13:00 +29°C° 0 mm 5 mps 600 mmHg 9%
    14:00 +30°C° 0 mm 5 mps 600 mmHg 8%
    15:00 +30°C° 0 mm 5 mps 600 mmHg 8%
    16:00 +30°C° 0 mm 6 mps 600 mmHg 8%
    17:00 +30°C° 0 mm 6 mps 600 mmHg 8%
    18:00 +28°C° 0 mm 6 mps 599 mmHg 9%
    19:00 +27°C° 0 mm 5 mps 599 mmHg 11%
    20:00 +25°C° 0 mm 4 mps 599 mmHg 12%
    21:00 +23°C° 0 mm 4 mps 599 mmHg 14%
    22:00 +22°C° 0 mm 3 mps 599 mmHg 16%
    23:00 +21°C° 0 mm 3 mps 599 mmHg 17%

    30 May, Tuesday

    Time Temperature Precipitation Wind Pressure Humidity
    00:00 +20°C° 0 mm 3 mps 598 mmHg 19%
    01:00 +20°C° 0 mm 3 mps 598 mmHg 21%
    02:00 +19°C° 0 mm 3 mps 597 mmHg 22%
    03:00 +18°C° 0 mm 3 mps 597 mmHg 24%
    04:00 +18°C° 0 mm 3 mps 597 mmHg 25%
    05:00 +17°C° 0 mm 3 mps 597 mmHg 26%
    06:00 +19°C° 0 mm 4 mps 597 mmHg 23%
    07:00 +20°C° 0 mm 4 mps 598 mmHg 20%
    08:00 +22°C° 0 mm 5 mps 599 mmHg 17%
    09:00 +23°C° 0 mm 5 mps 599 mmHg 16%
    10:00 +26°C° 0 mm 6 mps 600 mmHg 15%
    11:00 +27°C° 0 mm 6 mps 600 mmHg 14%
    12:00 +28°C° 0 mm 7 mps 600 mmHg 13%
    13:00 +28°C° 0 mm 7 mps 600 mmHg 12%
    14:00 +29°C° 0 mm 7 mps 600 mmHg 12%
    15:00 +29°C° 0 mm 7 mps 599 mmHg 12%
    16:00 +28°C° 0 mm 8 mps 599 mmHg 13%
    17:00 +28°C° 0 mm 8 mps 599 mmHg 13%
    18:00 +26°C° 0 mm 7 mps 598 mmHg 16%
    19:00 +24°C° 0 mm 6 mps 598 mmHg 19%
    20:00 +22°C° 0 mm 5 mps 598 mmHg 22%
    21:00 +21°C° 0 mm 4 mps 597 mmHg 24%
    22:00 +20°C° 0 mm 4 mps 597 mmHg 27%
    23:00 +19°C° 0 mm 3 mps 597 mmHg 30%

    31 May, Wednesday

    Time Temperature Precipitation Wind Pressure Humidity
    00:00 +18°C° 0 mm 3 mps 596 mmHg 32%
    01:00 +18°C° 0 mm 3 mps 596 mmHg 34%
    02:00 +17°C° 0 mm 3 mps 595 mmHg 36%
    03:00 +16°C° 0 mm 3 mps 595 mmHg 37%
    04:00 +16°C° 0 mm 2 mps 595 mmHg 39%
    05:00 +15°C° 0 mm 2 mps 595 mmHg 41%
    06:00 +16°C° 0 mm 3 mps 595 mmHg 35%
    07:00 +17°C° 0 mm 3 mps 596 mmHg 30%
    08:00 +18°C° 0 mm 3 mps 597 mmHg 24%
    09:00 +20°C° 0 mm 3 mps 597 mmHg 21%
    10:00 +21°C° 0 mm 3 mps 597 mmHg 17%
    11:00 +22°C° 0 mm 3 mps 598 mmHg 14%
    12:00 +24°C° 0 mm 3 mps 598 mmHg 13%
    13:00 +25°C° 0 mm 3 mps 598 mmHg 11%
    14:00 +26°C° 0 mm 3 mps 597 mmHg 10%
    15:00 +26°C° 0 mm 3 mps 597 mmHg 10%
    16:00 +27°C° 0 mm 3 mps 597 mmHg 9%
    17:00 +27°C° 0 mm 4 mps 597 mmHg 9%
    18:00 +25°C° 0 mm 3 mps 597 mmHg 11%
    19:00 +24°C° 0 mm 3 mps 596 mmHg 13%
    20:00 +22°C° 0 mm 3 mps 596 mmHg 14%
    21:00 +21°C° 0 mm 3 mps 596 mmHg 16%
    22:00 +20°C° 0 mm 3 mps 596 mmHg 18%
    23:00 +19°C° 0 mm 2 mps 596 mmHg 20%

    1 June, Thursday

    Time Temperature Precipitation Wind Pressure Humidity
    00:00 +18°C° 0 mm 2 mps 595 mmHg 21%
    01:00 +17°C° 0 mm 2 mps 595 mmHg 23%
    02:00 +17°C° 0 mm 2 mps 594 mmHg 25%
    03:00 +16°C° 0 mm 2 mps 594 mmHg 27%
    04:00 +15°C° 0 mm 2 mps 594 mmHg 28%
    05:00 +15°C° 0 mm 2 mps 594 mmHg 30%
    06:00 +16°C° 0 mm 2 mps 595 mmHg 27%
    07:00 +17°C° 0 mm 2 mps 596 mmHg 23%
    08:00 +19°C° 0 mm 2 mps 597 mmHg 20%
    09:00 +20°C° 0 mm 2 mps 597 mmHg 17%
    10:00 +21°C° 0 mm 2 mps 597 mmHg 14%
    11:00 +24°C° 0 mm 2 mps 598 mmHg 11%
    12:00 +25°C° 0 mm 2 mps 598 mmHg 10%
    13:00 +26°C° 0 mm 1 mps 598 mmHg 9%
    14:00 +27°C° 0 mm 1 mps 598 mmHg 8%
    15:00 +27°C° 0 mm 1 mps 598 mmHg 7%
    16:00 +27°C° 0 mm 2 mps 597 mmHg 7%
    17:00 +28°C° 0 mm 2 mps 597 mmHg 7%
    18:00 +26°C° 0 mm 2 mps 597 mmHg 8%
    19:00 +25°C° 0 mm 2 mps 597 mmHg 10%
    20:00 +24°C° 0 mm 2 mps 597 mmHg 12%
    21:00 +23°C° 0 mm 2 mps 597 mmHg 14%
    22:00 +21°C° 0 mm 2 mps 597 mmHg 16%
    23:00 +20°C° 0 mm 2 mps 597 mmHg 19%
    Show more